FW9434 Weather Reports


time (UTC)temp
F
wind
direction
speed
knots
gust
knots
rain 1hr
in
rain 24hr
in
rain mn
in
humidity
%
barometer
mb
20260505181857 81 158 7.8 8.7 0.00 0.00 0.00 38 1009.3
20260505181355 80 163 7.8 9.6 0.00 0.00 0.00 40 1009.2
20260505180851 81 205 2.6 4.3 0.00 0.00 0.00 43 1009.4
20260505180347 80 131 4.3 5.2 0.00 0.00 0.00 43 1009.5
20260505175844 80 163 5.2 6.1 0.00 0.00 0.00 42 1009.2
20260505175340 80 161 10.4 14.8 0.00 0.00 0.00 43 1009.6
20260505174837 80 142 3.5 4.3 0.00 0.00 0.00 44 1009.6
20260505174335 80 133 2.6 5.2 0.00 0.00 0.00 44 1009.6
20260505173830 79 192 7.0 8.7 0.00 0.00 0.00 44 1009.4
20260505173327 80 138 5.2 7.8 0.00 0.00 0.00 44 1009.4
20260505172824 80 119 1.7 4.3 0.00 0.00 0.00 44 1009.8
20260505172322 81 116 3.5 5.2 0.00 0.00 0.00 43 1009.6
20260505171821 81 158 4.3 5.2 0.00 0.00 0.00 44 1009.6
20260505171319 81 222 3.5 6.1 0.00 0.00 0.00 41 1009.8
20260505170815 81 162 1.7 1.7 0.00 0.00 0.00 42 1009.7
20260505170312 80 158 1.7 2.6 0.00 0.00 0.00 43 1010.2
20260505165807 80 181 3.5 6.1 0.00 0.00 0.00 42 1010.1
20260505165306 79 330 1.7 1.7 0.00 0.00 0.00 45 1010.1
20260505164759 80 103 0.9 2.6 0.00 0.00 0.00 47 1009.9
20260505164256 80 180 1.7 2.6 0.00 0.00 0.00 43 1010.0
20260505163755 80 316 1.7 1.7 0.00 0.00 0.00 44 1010.3
20260505163253 79 214 3.5 4.3 0.00 0.00 0.00 43 1010.2
20260505162750 79 163 3.5 4.3 0.00 0.00 0.00 43 1010.5
20260505162247 79 217 0.9 1.7 0.00 0.00 0.00 44 1010.5
20260505161744 78 200 3.5 4.3 0.00 0.00 0.00 45 1010.2
20260505161241 78 218 2.6 4.3 0.00 0.00 0.00 46 1010.4
20260505160738 78 199 7.8 9.6 0.00 0.00 0.00 47 1010.8
20260505160236 78 133 0.9 1.7 0.00 0.00 0.00 47 1010.8
20260505153215 77 256 2.6 2.6 0.00 0.00 0.00 48 1010.9
20260505152712 77 123 0.0 0.0 0.00 0.00 0.00 49 1011.0
20260505152208 76 121 2.6 2.6 0.00 0.00 0.00 50 1010.8
20260505151703 75 201 1.7 1.7 0.00 0.00 0.00 51 1011.1
20260505151201 74 132 0.9 0.9 0.00 0.00 0.00 52 1010.9
20260505150657 75 126 0.9 1.7 0.00 0.00 0.00 52 1011.3
20260505150154 74 162 4.3 5.2 0.00 0.00 0.00 52 1011.4
20260505140622 71 174 1.7 1.7 0.00 0.00 0.00 58 1011.7
20260505140119 70 75 2.6 2.6 0.00 0.00 0.00 59 1011.7
20260505125036 66 171 1.7 1.7 0.00 0.00 0.00 67 1011.4
20260505124533 65 149 0.9 1.7 0.00 0.00 0.00 67 1011.7
20260505124029 65 197 2.6 4.3 0.00 0.00 0.00 66 1011.6
20260505123525 65 150 2.6 5.2 0.00 0.00 0.00 68 1011.3
20260505123021 64 164 1.7 1.7 0.00 0.00 0.00 69 1011.1
20260505122519 64 145 0.9 1.7 0.00 0.00 0.00 69 1011.2
20260505122016 64 167 0.9 1.7 0.00 0.00 0.00 69 1011.3
20260505121512 63 197 1.7 1.7 0.00 0.00 0.00 72 1011.3
20260505121009 63 137 1.7 1.7 0.00 0.00 0.00 72 1011.1
20260505120506 62 117 0.0 0.0 0.00 0.00 0.00 75 1011.3
20260505120006 61 137 0.9 0.9 0.00 0.00 0.00 78 1011.5
20260505115501 60 130 1.7 1.7 0.00 0.00 0.00 80 1011.4
20260505114959 60 131 0.9 1.7 0.00 0.00 0.00 80 1011.3
20260505114455 59 131 0.9 0.9 0.00 0.00 0.00 80 1011.3
20260505113952 59 134 0.9 0.9 0.00 0.00 0.00 79 1011.3
20260505113449 59 134 0.9 0.9 0.00 0.00 0.00 79 1011.7
20260505112944 58 130 0.0 0.0 0.00 0.00 0.00 80 1011.3
20260505112441 57 128 0.0 0.0 0.00 0.00 0.00 80 1011.3
20260505111938 57 128 0.0 0.0 0.00 0.00 0.00 81 1011.2
20260505111432 57 126 0.0 0.0 0.00 0.00 0.00 82 1011.4
20260505110929 57 125 0.0 0.0 0.00 0.00 0.00 81 1011.3
20260505110426 57 125 0.0 0.0 0.00 0.00 0.00 81 1011.3
20260505101857 58 145 0.9 0.9 0.00 0.00 0.00 76 1011.3
20260505101351 58 179 1.7 1.7 0.00 0.00 0.00 76 1011.1
20260505100848 58 140 0.9 0.9 0.00 0.00 0.00 76 1011.3
20260505100344 58 142 0.9 0.9 0.00 0.00 0.00 76 1011.2
20260505095840 58 137 0.0 0.9 0.00 0.00 0.00 75 1011.2
20260505095338 58 74 0.0 0.9 0.00 0.00 0.00 75 1011.2
20260505094833 58 6 0.9 1.7 0.00 0.00 0.00 75 1011.1
20260505094331 58 56 0.9 0.9 0.00 0.00 0.00 75 1011.3
20260505093826 58 62 0.9 0.9 0.00 0.00 0.00 75 1010.7
20260505093324 58 215 1.7 1.7 0.00 0.00 0.00 75 1010.8
20260505092820 58 157 0.9 0.9 0.00 0.00 0.00 75 1010.5
20260505092319 58 131 0.0 0.0 0.00 0.00 0.00 75 1010.4
20260505091816 57 203 1.7 1.7 0.00 0.00 0.00 76 1010.5
20260505091314 57 132 0.0 0.0 0.00 0.00 0.00 77 1010.6
20260505090812 57 132 0.0 0.0 0.00 0.00 0.00 78 1010.5
20260505090310 56 132 0.0 0.0 0.00 0.00 0.00 78 1010.4
20260505085806 56 132 0.0 0.0 0.00 0.00 0.00 79 1010.4
20260505085305 56 132 0.0 0.0 0.00 0.00 0.00 79 1010.4
20260505084802 56 132 0.0 0.0 0.00 0.00 0.00 79 1010.2
20260505084301 56 131 0.0 0.0 0.00 0.00 0.00 78 1010.5
20260505083757 56 132 0.0 0.0 0.00 0.00 0.00 78 1010.4
20260505083254 56 132 0.0 0.0 0.00 0.00 0.00 78 1010.4
20260505082750 56 131 0.0 0.0 0.00 0.00 0.00 78 1010.5
20260505082248 56 132 0.0 0.0 0.00 0.00 0.00 78 1010.4
20260505081743 56 131 0.0 0.0 0.00 0.00 0.00 78 1010.3
20260505081241 56 132 0.0 0.0 0.00 0.00 0.00 78 1010.4
20260505080738 56 131 0.0 0.0 0.00 0.00 0.00 79 1010.5
20260505080233 56 131 0.0 0.0 0.00 0.00 0.00 79 1010.4
20260505075729 56 131 0.0 0.0 0.00 0.00 0.00 78 1010.3
20260505075226 56 131 0.0 0.0 0.00 0.00 0.00 78 1010.4
20260505074723 56 131 0.0 0.0 0.00 0.00 0.00 77 1010.5
20260505074220 57 131 0.0 0.0 0.00 0.00 0.00 77 1010.3
20260505073718 57 131 0.0 0.0 0.00 0.00 0.00 76 1010.4
20260505073216 57 131 0.0 0.0 0.00 0.00 0.00 76 1010.6
20260505072711 57 131 0.0 0.9 0.00 0.00 0.00 75 1010.3
20260505072208 57 131 0.0 0.0 0.00 0.00 0.00 74 1010.4
20260505071703 58 131 0.0 0.0 0.00 0.00 0.00 74 1010.5
20260505071201 58 131 0.0 0.0 0.00 0.00 0.00 73 1010.4
20260505070659 59 131 0.0 0.0 0.00 0.00 0.00 72 1010.4
20260505070154 59 143 0.9 1.7 0.00 0.00 0.00 72 1010.3
20260505065651 59 135 0.9 0.9 0.00 0.00 0.00 71 1010.4
20260505065148 59 131 0.0 0.0 0.00 0.00 0.00 71 1010.3
20260505064644 59 142 0.9 0.9 0.00 0.00 0.00 71 1010.2
20260505064142 59 135 0.0 0.0 0.00 0.00 0.00 71 1010.5
20260505063640 59 142 0.9 0.9 0.00 0.00 0.00 71 1010.3
20260505063136 59 131 0.9 0.9 0.00 0.00 0.00 71 1010.5
20260505062633 59 188 1.7 2.6 0.00 0.00 0.00 71 1010.4
20260505062130 59 138 0.0 0.0 0.00 0.00 0.00 72 1010.3
20260505061627 58 135 0.9 0.9 0.00 0.00 0.00 72 1010.4
20260505061125 58 131 0.9 0.9 0.00 0.00 0.00 73 1010.6
20260505060622 58 131 0.9 0.9 0.00 0.00 0.00 73 1010.6
20260505060119 58 138 0.9 1.7 0.00 0.00 0.00 73 1010.6
20260505055614 58 138 0.9 0.9 0.00 0.00 0.00 73 1010.2
20260505055111 58 159 2.6 2.6 0.00 0.00 0.00 73 1010.6
20260505054608 58 131 1.7 1.7 0.00 0.00 0.00 73 1010.7
20260505054106 58 126 0.9 0.9 0.00 0.00 0.00 73 1010.4
20260505053603 58 134 1.7 1.7 0.00 0.00 0.00 72 1010.8
20260505053059 58 142 0.9 1.7 0.00 0.00 0.00 72 1010.6
20260505052556 58 112 0.9 1.7 0.00 0.00 0.00 72 1010.8
20260505052054 58 118 0.9 0.9 0.00 0.00 0.00 72 1010.8
20260505051551 58 142 0.9 1.7 0.00 0.00 0.00 71 1010.6
20260505051049 58 130 1.7 1.7 0.00 0.00 0.00 71 1010.5
20260505050547 59 157 1.7 1.7 0.00 0.00 0.00 70 1010.8
20260505041514 59 175 2.6 2.6 0.00 0.00 0.00 66 1011.2
20260505041012 59 171 2.6 2.6 0.00 0.00 0.00 65 1011.1
20260505040509 59 135 2.6 2.6 0.00 0.00 0.00 65 1011.1
20260505040006 60 158 1.7 1.7 0.00 0.00 0.00 64 1011.0
20260505035502 59 130 1.7 1.7 0.00 0.00 0.00 64 1011.0
20260505034959 60 155 2.6 2.6 0.00 0.00 0.00 63 1010.9
20260505034455 60 149 1.7 1.7 0.00 0.00 0.00 62 1010.9
20260505033953 60 175 2.6 2.6 0.00 0.00 0.00 61 1010.9
20260505033449 60 151 2.6 2.6 0.00 0.00 0.00 61 1011.0
20260505032948 60 169 2.6 2.6 0.00 0.00 0.00 61 1010.6
20260505032445 61 136 2.6 2.6 0.00 0.00 0.00 59 1010.9
20260505031941 61 155 2.6 4.3 0.00 0.00 0.00 59 1011.0
20260505031438 61 141 2.6 2.6 0.00 0.00 0.00 58 1010.8
20260505030935 61 152 2.6 2.6 0.00 0.00 0.00 58 1011.3
20260505030431 61 159 2.6 2.6 0.00 0.00 0.00 58 1011.0
20260505025926 61 137 2.6 2.6 0.00 0.00 0.00 57 1011.0
20260505025424 61 137 1.7 1.7 0.00 0.00 0.00 56 1011.3
20260505024923 61 144 2.6 2.6 0.00 0.00 0.00 56 1011.2
20260505024419 62 142 1.7 1.7 0.00 0.00 0.00 55 1011.0
20260505023916 61 135 1.7 1.7 0.00 0.00 0.00 55 1010.9
20260505023414 62 175 2.6 2.6 0.00 0.00 0.00 54 1011.1
20260505022911 62 131 1.7 1.7 0.00 0.00 0.00 53 1010.9
20260505022408 62 142 2.6 4.3 0.00 0.00 0.00 52 1011.3
20260505021905 62 141 2.6 4.3 0.00 0.00 0.00 51 1011.1
20260505021401 62 128 3.5 4.3 0.00 0.00 0.00 51 1011.1
20260505020857 62 149 2.6 2.6 0.00 0.00 0.00 51 1011.2
20260505020353 63 145 2.6 2.6 0.00 0.00 0.00 50 1011.2
20260505015850 63 145 2.6 2.6 0.00 0.00 0.00 50 1011.2
20260505015347 63 141 2.6 2.6 0.00 0.00 0.00 49 1011.2
20260505014844 63 142 1.7 1.7 0.00 0.00 0.00 49 1011.2
20260505014341 64 142 1.7 1.7 0.00 0.00 0.00 48 1010.8
20260505013838 64 141 1.7 1.7 0.00 0.00 0.00 48 1010.9
20260505013335 64 136 1.7 1.7 0.00 0.00 0.00 48 1010.9
20260505012833 64 131 0.9 1.7 0.00 0.00 0.00 47 1011.0
20260505012331 64 142 1.7 1.7 0.00 0.00 0.00 47 1010.7
20260505011826 64 142 1.7 1.7 0.00 0.00 0.00 47 1010.7
20260505011324 65 146 1.7 1.7 0.00 0.00 0.00 47 1010.8
20260505010819 65 142 1.7 1.7 0.00 0.00 0.00 47 1010.7
20260505010315 65 141 1.7 1.7 0.00 0.00 0.00 46 1010.6
20260505005812 65 131 1.7 1.7 0.00 0.00 0.00 46 1010.6
20260505005309 65 135 1.7 1.7 0.00 0.00 0.00 46 1010.3
20260505004807 65 142 0.9 1.7 0.00 0.00 0.00 45 1010.3
20260505004302 65 168 1.7 1.7 0.00 0.00 0.00 45 1010.5
20260505003800 66 142 0.9 0.9 0.00 0.00 0.00 45 1010.4
20260505003257 66 137 0.9 1.7 0.00 0.00 0.00 45 1010.3
20260505002754 66 129 0.9 1.7 0.00 0.00 0.00 45 1010.2
20260505002251 66 144 1.7 1.7 0.00 0.00 0.00 44 1010.4
20260505001749 66 142 2.6 4.3 0.00 0.00 0.00 44 1010.4
20260505001246 66 131 0.9 0.9 0.00 0.00 0.00 44 1010.0
20260505000743 67 140 1.7 1.7 0.00 0.00 0.00 43 1010.0
20260505000241 67 131 1.7 1.7 0.00 0.00 0.00 43 1010.1
20260504235737 67 142 0.9 0.9 0.00 0.00 0.00 42 1010.0
20260504235233 68 164 1.7 1.7 0.00 0.00 0.00 42 1009.9
20260504234731 68 142 2.6 2.6 0.00 0.00 0.00 42 1009.6
20260504234228 68 157 3.5 4.3 0.00 0.00 0.00 42 1009.7
20260504233724 68 120 1.7 1.7 0.00 0.00 0.00 41 1009.6
20260504233220 68 152 0.0 0.9 0.00 0.00 0.00 42 1009.5
20260504232717 68 149 1.7 1.7 0.00 0.00 0.00 41 1009.4
20260504232214 68 190 4.3 6.1 0.00 0.00 0.00 41 1009.4
20260504231711 68 186 2.6 4.3 0.00 0.00 0.00 41 1009.5
20260504231207 69 145 1.7 1.7 0.00 0.00 0.00 41 1009.5
20260504230703 69 149 1.7 1.7 0.00 0.00 0.00 40 1009.4
20260504230202 69 127 0.9 0.9 0.00 0.00 0.00 40 1009.4
20260504225700 69 162 0.9 0.9 0.00 0.00 0.00 40 1009.4
20260504225156 69 142 2.6 2.6 0.00 0.00 0.00 40 1009.5
20260504224653 69 184 2.6 4.3 0.00 0.00 0.00 39 1009.2
20260504224150 69 150 1.7 1.7 0.00 0.00 0.00 39 1009.2
20260504223647 70 174 1.7 1.7 0.00 0.00 0.00 40 1009.4
20260504223142 70 203 2.6 4.3 0.00 0.00 0.00 39 1009.3
20260504222640 70 120 0.9 2.6 0.00 0.00 0.00 39 1009.3
20260504222136 70 130 0.9 1.7 0.00 0.00 0.00 39 1009.6
20260504221634 70 90 0.0 0.9 0.00 0.00 0.00 39 1009.4
20260504221131 70 144 0.9 0.9 0.00 0.00 0.00 39 1009.4
20260504220627 70 176 3.5 5.2 0.00 0.00 0.00 39 1009.3
20260504220125 70 142 2.6 4.3 0.00 0.00 0.00 39 1009.4
20260504215621 70 142 0.9 1.7 0.00 0.00 0.00 39 1009.6
20260504215119 70 89 0.9 0.9 0.00 0.00 0.00 38 1009.3
20260504214614 70 164 2.6 6.1 0.00 0.00 0.00 39 1009.5
20260504214111 70 174 0.9 1.7 0.00 0.00 0.00 38 1009.8
20260504213607 70 96 0.9 0.9 0.00 0.00 0.00 39 1009.5
20260504213104 70 127 0.0 0.9 0.00 0.00 0.00 39 1009.7
20260504212600 70 163 2.6 2.6 0.00 0.00 0.00 39 1009.8
20260504212058 71 151 0.9 1.7 0.00 0.00 0.00 38 1009.9
20260504211554 70 141 0.9 2.6 0.00 0.00 0.00 38 1009.9
20260504211051 70 214 1.7 2.6 0.00 0.00 0.00 38 1009.8
20260504210549 71 236 2.6 2.6 0.00 0.00 0.00 37 1010.1
20260504210045 71 238 1.7 1.7 0.00 0.00 0.00 37 1009.7
20260504205543 72 163 1.7 1.7 0.00 0.00 0.00 39 1010.1
20260504205041 71 4 2.6 2.6 0.00 0.00 0.00 37 1009.8
20260504204538 71 140 1.7 2.6 0.00 0.00 0.00 37 1009.7
20260504204037 71 270 0.9 1.7 0.00 0.00 0.00 36 1009.6
20260504203535 71 152 3.5 4.3 0.00 0.00 0.00 37 1009.8
20260504203032 71 201 2.6 2.6 0.00 0.00 0.00 36 1009.6
20260504202527 71 141 3.5 5.2 0.00 0.00 0.00 37 1009.6
20260504202025 71 185 0.9 1.7 0.00 0.00 0.00 36 1009.7
20260504201521 71 200 3.5 4.3 0.00 0.00 0.00 36 1009.9
20260504201020 71 206 4.3 6.1 0.00 0.00 0.00 36 1010.0
20260504200515 70 134 1.7 1.7 0.00 0.00 0.00 37 1009.9
20260504200012 71 119 4.3 5.2 0.00 0.00 0.00 39 1010.0
20260504195508 71 149 0.9 1.7 0.00 0.00 0.00 38 1010.1
20260504195005 71 149 0.9 1.7 0.00 0.00 0.00 37 1009.7
20260504194501 72 284 4.3 5.2 0.00 0.00 0.00 35 1010.2
20260504193957 71 178 1.7 1.7 0.00 0.00 0.00 37 1010.0
20260504193454 70 20 0.9 0.9 0.00 0.00 0.00 37 1010.1
20260504192953 71 152 4.3 7.8 0.00 0.00 0.00 38 1010.2
20260504192450 71 116 2.6 4.3 0.00 0.00 0.00 36 1010.2
20260504191949 72 187 1.7 4.3 0.00 0.00 0.00 36 1010.0
20260504191446 72 145 0.9 1.7 0.00 0.00 0.00 35 1010.1
20260504190941 71 138 1.7 2.6 0.00 0.00 0.00 37 1010.3
20260504190438 71 194 2.6 2.6 0.00 0.00 0.00 37 1010.4
20260504185934 71 136 0.9 1.7 0.00 0.00 0.00 37 1010.7
20260504185432 70 184 2.6 4.3 0.00 0.00 0.00 37 1010.3
20260504184928 69 141 0.9 1.7 0.00 0.00 0.00 39 1010.5
20260504184423 69 305 3.5 6.1 0.00 0.00 0.00 37 1010.8
20260504183920 69 158 4.3 5.2 0.00 0.00 0.00 37 1010.7
20260504183417 69 178 1.7 1.7 0.00 0.00 0.00 37 1010.7
20260504182915 69 191 5.2 6.1 0.00 0.00 0.00 37 1011.0
20260504182412 70 137 1.7 2.6 0.00 0.00 0.00 37 1010.9